Preview of NWS' New Version of Forecast
This preview is not operational and should not be used for support decisions.

Regional Weather Roundup (RWR)

Issued by National Weather Service (NWS)

                            
000
ASUS43 KTOP 240459
RWRKS 

WEATHER ROUNDUP FOR KANSAS
NATIONAL WEATHER SERVICE GOODLAND KS
1200 AM CDT SAT AUG 24 2019

NOTE:  "FAIR" INDICATES FEW OR NO CLOUDS BELOW 12,000 FEET WITH NO
SIGNIFICANT WEATHER AND/OR OBSTRUCTIONS TO VISIBILITY.

KSZ001>006-013>018-027>032-041>047-240600-
NORTHWEST KANSAS
  
CITY           SKY/WX    TMP DP  RH WIND       PRES   REMARKS
GOODLAND       LGT RAIN  61  59  93 SE9       30.05F                  
HAYS           CLOUDY    70  69  97 SE12      29.84R                  
HILL CITY      CLOUDY    69  68  96 E12       30.03S                  
RUSSELL        MOCLDY    71  68  90 E10       30.03R                  
$$

KSZ061>065-074>080-084>089-240600-
SOUTHWEST KANSAS
  
CITY           SKY/WX    TMP DP  RH WIND       PRES   REMARKS
DODGE CITY     RAIN      70  69  97 S16       30.04F FOG              
GARDEN CITY    PTCLDY    70  67  90 S22G40    29.99R                  
GREAT BEND     MOCLDY    71  69  93 SE6       30.06R                  
LIBERAL        RAIN      66  61  84 SE17      30.07R                  
$$

KSZ066>073-081>083-090>101-240600-
SOUTHEAST KANSAS
  
CITY           SKY/WX    TMP DP  RH WIND       PRES   REMARKS
CHANUTE        MOCLDY    73  70  90 E8        30.03R                  
COFFEYVILLE    CLEAR     72  70  93 E7        29.99F                  
HUTCHINSON     CLEAR     71  67  87 SE5       30.05R                  
MEDICINE LODGE   N/A     71  69  93 SE5       30.04R                  
NEWTON         CLEAR     69  67  93 E7        30.04R                  
PARSONS        PTCLDY    72  70  93 VRB3      30.03S                  
WICHITA INTL   CLOUDY    73  67  81 SE6       30.03R                  
WICHITA JABRA  CLEAR     71  68  90 SE5       30.03R                  
WICHITA MCCONL CLEAR     71  65  81 E7        30.03R                  
WINFIELD       CLEAR     72  67  84 E5        30.02R                  
$$

KSZ007>012-019>026-033>040-048>060-102>105-240600-
NORTHEAST KANSAS
  
CITY           SKY/WX    TMP DP  RH WIND       PRES   REMARKS
CONCORDIA      CLOUDY    72  69  90 E7        30.06R                  
EMPORIA        CLEAR     72  69  90 E10       30.05R                  
LAWRENCE       CLEAR     73  65  75 E8        30.05S                  
MANHATTAN      MOCLDY    74  68  81 E7        30.06R                  
OLATHE IND     CLEAR     72  64  76 E9        30.07S                  
OLATHE EXE     CLEAR     71  65  81 E8        30.07S                  
SALINA         MOCLDY    73  69  87 SE7       30.05R                  
TOPEKA BILLARD CLEAR     72  65  78 E7        30.07R                  
TOPEKA FORBES  CLEAR     74  65  73 E9        30.06R                  
$$